| time (UTC) | temp F | wind direction | speed MPH | gust MPH | rain 1hr in | rain 24hr in | rain mn in | humidity % | barometer mb |
| 20260903152126 | 85 | 351 | 2.0 | 9.0 | 0.00 | 0.00 | 0.00 | 74 | 1016.7 |
| 20260903151129 | 85 | 15 | 5.0 | 9.0 | 0.00 | 0.00 | 0.00 | 73 | 1016.5 |
| 20260903150126 | 86 | 5 | 4.0 | 9.0 | 0.00 | 0.00 | 0.00 | 73 | 1016.5 |
| 20260903145127 | 85 | 315 | 4.0 | 9.0 | 0.00 | 0.00 | 0.00 | 73 | 1016.6 |
| 20260903144124 | 85 | 355 | 4.0 | 10.0 | 0.00 | 0.00 | 0.00 | 73 | 1016.7 |
| 20260903143128 | 85 | 336 | 4.0 | 10.0 | 0.00 | 0.00 | 0.00 | 74 | 1016.8 |
| 20260903142130 | 85 | 35 | 5.0 | 11.0 | 0.00 | 0.00 | 0.00 | 74 | 1016.8 |
| 20260903141126 | 86 | 355 | 5.0 | 10.0 | 0.00 | 0.00 | 0.00 | 73 | 1017.0 |
| 20260903140128 | 86 | 23 | 4.0 | 10.0 | 0.00 | 0.00 | 0.00 | 73 | 1016.9 |
| 20260903135126 | 86 | 340 | 5.0 | 10.0 | 0.00 | 0.00 | 0.00 | 73 | 1017.0 |
| 20260903134125 | 85 | 328 | 6.0 | 10.0 | 0.00 | 0.00 | 0.00 | 73 | 1017.0 |
| 20260903133124 | 85 | 315 | 7.0 | 12.0 | 0.00 | 0.00 | 0.00 | 73 | 1017.2 |
| 20260903132124 | 85 | 315 | 6.0 | 11.0 | 0.00 | 0.00 | 0.00 | 72 | 1017.1 |
| 20260903130118 | 86 | 348 | 6.0 | 13.0 | 0.00 | 0.00 | 0.00 | 72 | 1017.1 |
| 20260903125121 | 86 | 355 | 7.0 | 13.0 | 0.00 | 0.00 | 0.00 | 71 | 1017.2 |
| 20260903121121 | 86 | 329 | 7.0 | 13.0 | 0.00 | 0.00 | 0.00 | 71 | 1017.3 |
| 20260903120123 | 86 | 5 | 8.0 | 13.0 | 0.00 | 0.00 | 0.00 | 71 | 1017.2 |
| 20260903114117 | 85 | 348 | 9.0 | 15.0 | 0.00 | 0.00 | 0.00 | 71 | 1017.3 |
| 20260903113121 | 86 | 9 | 9.0 | 14.0 | 0.00 | 0.00 | 0.00 | 70 | 1017.4 |
| 20260903112116 | 87 | 306 | 7.0 | 12.0 | 0.00 | 0.00 | 0.00 | 69 | 1017.4 |
| 20260903111124 | 86 | 349 | 8.0 | 13.0 | 0.00 | 0.00 | 0.00 | 67 | 1017.4 |
| 20260903110122 | 87 | 5 | 8.0 | 14.0 | 0.00 | 0.00 | 0.00 | 66 | 1017.4 |
| 20260903105113 | 87 | 22 | 9.0 | 14.0 | 0.00 | 0.00 | 0.00 | 66 | 1017.5 |
| 20260903103109 | 87 | 355 | 7.0 | 12.0 | 0.00 | 0.00 | 0.00 | 61 | 1017.5 |
| 20260903102109 | 87 | 347 | 7.0 | 11.0 | 0.00 | 0.00 | 0.00 | 63 | 1017.5 |
| 20260903101110 | 87 | 26 | 7.0 | 12.0 | 0.00 | 0.00 | 0.00 | 64 | 1017.7 |
| 20260903100110 | 87 | 5 | 5.0 | 11.0 | 0.00 | 0.00 | 0.00 | 63 | 1017.8 |
| 20260903094110 | 87 | 330 | 5.0 | 10.0 | 0.00 | 0.00 | 0.00 | 66 | 1017.9 |
| 20260903093118 | 87 | 51 | 5.0 | 11.0 | 0.00 | 0.00 | 0.00 | 67 | 1018.0 |
| 20260903092109 | 87 | 337 | 5.0 | 11.0 | 0.00 | 0.00 | 0.00 | 66 | 1018.0 |
| 20260903091109 | 87 | 23 | 4.0 | 8.0 | 0.00 | 0.00 | 0.00 | 65 | 1018.1 |
| 20260903090109 | 86 | 13 | 4.0 | 8.0 | 0.00 | 0.00 | 0.00 | 66 | 1018.1 |
| 20260903085110 | 86 | 279 | 4.0 | 9.0 | 0.00 | 0.00 | 0.00 | 67 | 1018.0 |
| 20260903084113 | 86 | 345 | 4.0 | 9.0 | 0.00 | 0.00 | 0.00 | 68 | 1018.0 |
| 20260903083113 | 86 | 337 | 3.0 | 9.0 | 0.00 | 0.00 | 0.00 | 67 | 1018.0 |
| 20260903081119 | 85 | 0 | 5.0 | 10.0 | 0.00 | 0.00 | 0.00 | 69 | 1017.9 |
| 20260903080107 | 85 | 302 | 4.0 | 9.0 | 0.00 | 0.00 | 0.00 | 69 | 1017.9 |
| 20260903075107 | 85 | 10 | 4.0 | 8.0 | 0.00 | 0.00 | 0.00 | 70 | 1017.8 |
| 20260903074110 | 85 | 333 | 3.0 | 5.0 | 0.00 | 0.00 | 0.00 | 69 | 1017.8 |
| 20260903071105 | 84 | 230 | 4.0 | 8.0 | 0.00 | 0.00 | 0.00 | 73 | 1017.9 |
| 20260903065103 | 83 | 213 | 4.0 | 9.0 | 0.00 | 0.00 | 0.00 | 75 | 1017.8 |
| 20260903064108 | 83 | 248 | 4.0 | 9.0 | 0.00 | 0.00 | 0.00 | 75 | 1017.8 |
| 20260903063101 | 82 | 311 | 4.0 | 8.0 | 0.00 | 0.00 | 0.00 | 76 | 1017.9 |
| 20260903062101 | 81 | 225 | 3.0 | 5.0 | 0.00 | 0.00 | 0.00 | 78 | 1017.9 |
| 20260903061103 | 81 | 199 | 3.0 | 7.0 | 0.00 | 0.00 | 0.00 | 79 | 1017.9 |
| 20260903055101 | 79 | 226 | 5.0 | 9.0 | 0.00 | 0.00 | 0.00 | 81 | 1017.9 |
| 20260903054100 | 79 | 234 | 5.0 | 9.0 | 0.00 | 0.00 | 0.00 | 82 | 1017.9 |
| 20260903053102 | 78 | 227 | 5.0 | 7.0 | 0.00 | 0.00 | 0.00 | 83 | 1017.8 |
| 20260903052102 | 78 | 228 | 4.0 | 8.0 | 0.00 | 0.00 | 0.00 | 83 | 1017.9 |
| 20260903051107 | 78 | 234 | 3.0 | 7.0 | 0.00 | 0.00 | 0.00 | 84 | 1017.8 |
| 20260903045101 | 77 | 221 | 4.0 | 7.0 | 0.00 | 0.00 | 0.00 | 84 | 1017.7 |
| 20260903043101 | 77 | 203 | 3.0 | 6.0 | 0.00 | 0.00 | 0.00 | 84 | 1017.7 |
| 20260903042103 | 77 | 209 | 4.0 | 6.0 | 0.00 | 0.00 | 0.00 | 84 | 1017.6 |
| 20260903041057 | 77 | 209 | 4.0 | 6.0 | 0.00 | 0.00 | 0.00 | 84 | 1017.6 |
| 20260903040059 | 77 | 193 | 3.0 | 5.0 | 0.00 | 0.00 | 0.00 | 84 | 1017.6 |
| 20260903035103 | 77 | 191 | 3.0 | 5.0 | 0.00 | 0.00 | 0.00 | 84 | 1017.6 |
| 20260903034057 | 78 | 188 | 4.0 | 6.0 | 0.00 | 0.00 | 0.00 | 83 | 1017.5 |
| 20260903030058 | 78 | 195 | 4.0 | 6.0 | 0.00 | 0.00 | 0.00 | 82 | 1017.7 |
| 20260903025058 | 78 | 231 | 3.0 | 6.0 | 0.00 | 0.00 | 0.00 | 83 | 1017.8 |
| 20260903024056 | 78 | 229 | 3.0 | 5.0 | 0.00 | 0.00 | 0.00 | 83 | 1017.8 |
| 20260903023056 | 78 | 227 | 2.0 | 5.0 | 0.00 | 0.00 | 0.00 | 83 | 1017.9 |
| 20260903022056 | 78 | 209 | 3.0 | 5.0 | 0.00 | 0.00 | 0.00 | 83 | 1018.0 |
| 20260903021056 | 78 | 196 | 4.0 | 6.0 | 0.00 | 0.00 | 0.00 | 83 | 1018.0 |
| 20260903020056 | 78 | 232 | 3.0 | 5.0 | 0.00 | 0.00 | 0.00 | 83 | 1018.1 |
| 20260903015058 | 78 | 202 | 3.0 | 5.0 | 0.00 | 0.00 | 0.00 | 83 | 1018.2 |
| 20260903013056 | 78 | 183 | 4.0 | 6.0 | 0.00 | 0.00 | 0.00 | 82 | 1018.1 |
| 20260903012050 | 78 | 207 | 3.0 | 5.0 | 0.00 | 0.00 | 0.00 | 82 | 1018.1 |
| 20260903010054 | 78 | 229 | 3.0 | 5.0 | 0.00 | 0.00 | 0.00 | 82 | 1018.1 |
| 20260903005049 | 78 | 239 | 4.0 | 6.0 | 0.00 | 0.00 | 0.00 | 82 | 1018.2 |
| 20260903004054 | 78 | 219 | 4.0 | 7.0 | 0.00 | 0.00 | 0.00 | 82 | 1018.2 |
| 20260903003049 | 79 | 193 | 4.0 | 7.0 | 0.00 | 0.00 | 0.00 | 82 | 1018.3 |
| 20260903002050 | 78 | 219 | 4.0 | 8.0 | 0.00 | 0.00 | 0.00 | 82 | 1018.2 |
| 20260903001050 | 78 | 234 | 4.0 | 5.0 | 0.00 | 0.00 | 0.00 | 82 | 1018.4 |
| 20260902235049 | 79 | 204 | 4.0 | 5.0 | 0.00 | 0.00 | 0.00 | 82 | 1018.5 |
| 20260902234048 | 79 | 187 | 3.0 | 6.0 | 0.00 | 0.00 | 0.00 | 81 | 1018.6 |
| 20260902233051 | 79 | 216 | 2.0 | 5.0 | 0.00 | 0.00 | 0.00 | 81 | 1018.5 |
| 20260902232047 | 79 | 194 | 3.0 | 5.0 | 0.00 | 0.00 | 0.00 | 81 | 1018.5 |
| 20260902231047 | 80 | 224 | 4.0 | 6.0 | 0.00 | 0.00 | 0.00 | 80 | 1018.5 |
| 20260902230042 | 80 | 193 | 3.0 | 5.0 | 0.00 | 0.00 | 0.00 | 80 | 1018.6 |
| 20260902225047 | 80 | 187 | 2.0 | 4.0 | 0.00 | 0.00 | 0.00 | 80 | 1018.7 |
| 20260902224046 | 80 | 207 | 3.0 | 4.0 | 0.00 | 0.00 | 0.00 | 80 | 1018.7 |
| 20260902223042 | 80 | 205 | 3.0 | 6.0 | 0.00 | 0.00 | 0.00 | 79 | 1018.6 |
| 20260902222044 | 81 | 210 | 3.0 | 6.0 | 0.00 | 0.00 | 0.00 | 79 | 1018.6 |
| 20260902221105 | 81 | 215 | 3.0 | 5.0 | 0.00 | 0.00 | 0.00 | 79 | 1018.6 |
| 20260902220104 | 81 | 202 | 4.0 | 6.0 | 0.00 | 0.00 | 0.00 | 78 | 1018.7 |
| 20260902215041 | 82 | 190 | 3.0 | 5.0 | 0.00 | 0.00 | 0.00 | 78 | 1018.8 |
| 20260902212042 | 82 | 262 | 3.0 | 6.0 | 0.00 | 0.00 | 0.00 | 77 | 1018.7 |
| 20260902211040 | 82 | 269 | 3.0 | 4.0 | 0.00 | 0.00 | 0.00 | 77 | 1018.7 |
| 20260902210051 | 82 | 265 | 3.0 | 6.0 | 0.00 | 0.00 | 0.00 | 77 | 1018.7 |
| 20260902205049 | 82 | 0 | 1.0 | 2.0 | 0.00 | 0.00 | 0.00 | 77 | 1018.7 |
| 20260902204045 | 82 | 0 | 1.0 | 3.0 | 0.00 | 0.00 | 0.00 | 77 | 1018.7 |
| 20260902203042 | 82 | 0 | 0.0 | 2.0 | 0.00 | 0.00 | 0.00 | 77 | 1018.8 |
| 20260902202044 | 83 | 0 | 1.0 | 4.0 | 0.00 | 0.00 | 0.00 | 77 | 1018.7 |
| 20260902201043 | 83 | 0 | 2.0 | 4.0 | 0.00 | 0.00 | 0.00 | 77 | 1018.7 |
| 20260902195043 | 83 | 0 | 4.0 | 6.0 | 0.00 | 0.00 | 0.00 | 77 | 1019.0 |
| 20260902194044 | 83 | 350 | 4.0 | 9.0 | 0.00 | 0.00 | 0.00 | 76 | 1018.9 |
| 20260902193041 | 83 | 317 | 4.0 | 7.0 | 0.00 | 0.00 | 0.00 | 76 | 1019.0 |
| 20260902191041 | 83 | 9 | 2.0 | 5.0 | 0.00 | 0.00 | 0.00 | 77 | 1018.9 |
| 20260902190040 | 83 | 5 | 3.0 | 5.0 | 0.00 | 0.00 | 0.00 | 77 | 1018.9 |
| 20260902185040 | 83 | 5 | 2.0 | 4.0 | 0.00 | 0.00 | 0.00 | 76 | 1018.8 |
| 20260902184041 | 83 | 5 | 2.0 | 4.0 | 0.00 | 0.00 | 0.00 | 76 | 1018.7 |
| 20260902182040 | 83 | 336 | 2.0 | 5.0 | 0.00 | 0.00 | 0.00 | 75 | 1018.5 |
| 20260902181044 | 83 | 336 | 2.0 | 6.0 | 0.00 | 0.00 | 0.00 | 74 | 1018.4 |
| 20260902180041 | 83 | 0 | 2.0 | 4.0 | 0.00 | 0.00 | 0.00 | 74 | 1018.3 |
| 20260902175045 | 83 | 0 | 3.0 | 4.0 | 0.00 | 0.00 | 0.00 | 73 | 1018.2 |
| 20260902174044 | 84 | 0 | 2.0 | 4.0 | 0.00 | 0.00 | 0.00 | 74 | 1018.1 |
| 20260902172044 | 85 | 0 | 0.0 | 2.0 | 0.00 | 0.00 | 0.00 | 74 | 1018.2 |
| 20260902171040 | 85 | 0 | 2.0 | 4.0 | 0.00 | 0.00 | 0.00 | 73 | 1018.2 |
| 20260902170041 | 85 | 0 | 3.0 | 6.0 | 0.00 | 0.00 | 0.00 | 72 | 1018.2 |
| 20260902165043 | 85 | 15 | 2.0 | 4.0 | 0.00 | 0.00 | 0.00 | 72 | 1018.2 |
| 20260902164045 | 86 | 0 | 3.0 | 8.0 | 0.00 | 0.00 | 0.00 | 71 | 1018.3 |
| 20260902163046 | 86 | 355 | 2.0 | 6.0 | 0.00 | 0.00 | 0.00 | 71 | 1018.3 |
| 20260902162045 | 86 | 355 | 3.0 | 7.0 | 0.00 | 0.00 | 0.00 | 70 | 1018.5 |
| 20260902161043 | 86 | 325 | 4.0 | 9.0 | 0.00 | 0.00 | 0.00 | 71 | 1018.4 |
| 20260902160037 | 87 | 5 | 4.0 | 9.0 | 0.00 | 0.00 | 0.00 | 68 | 1018.4 |
| 20260902154045 | 87 | 27 | 5.0 | 9.0 | 0.00 | 0.00 | 0.00 | 67 | 1018.4 |
| 20260902153036 | 87 | 348 | 4.0 | 9.0 | 0.00 | 0.00 | 0.00 | 66 | 1018.5 |